Location: Unspecified
(0.0000°N, 0.0000°E)
Time: 08:39:35
(UTC+00:00)

S-56A Canister/Altair - All Passes

Search period start: 03 April 2020 00:00
Search period end: 13 April 2020 00:00
Orbit: 634 x 2498 km, 38.9° (Epoch: 02 April)

Date Brightness Start Highest point End Pass type
(mag) Time Alt. Az. Time Alt. Az. Time Alt. Az.
03 Apr - 05:36:59 10° NNW 05:43:37 37° NE 05:53:14 10° ESE visible
03 Apr - 07:39:53 10° WNW 07:48:32 56° SW 08:01:18 10° SE daylight
03 Apr - 09:48:48 10° WSW 09:56:29 19° SSW 10:05:30 10° SSE daylight
03 Apr - 16:22:32 10° SSW 16:31:56 24° SSE 16:39:11 10° ESE daylight
03 Apr - 18:27:31 10° SW 18:38:31 80° SE 18:45:32 10° NE visible
03 Apr - 20:37:22 10° W 20:42:17 17° NW 20:46:16 10° N visible
04 Apr - 05:04:57 10° NNW 05:10:49 29° NE 05:18:59 10° ESE visible
04 Apr - 07:07:10 10° WNW 07:15:17 64° SW 07:27:38 10° SE daylight
04 Apr - 09:15:03 10° WSW 09:22:47 21° SSW 09:32:11 10° SSE daylight
04 Apr - 15:49:07 10° SSW 15:58:25 22° SSE 16:05:49 10° ESE daylight
04 Apr - 17:53:50 10° SW 18:05:29 70° SE 18:13:01 10° ENE daylight
04 Apr - 20:02:52 10° W 20:09:35 24° NW 20:14:38 10° N visible
05 Apr - 04:33:06 10° N 04:38:05 22° NE 04:44:38 10° E visible
05 Apr - 06:34:34 10° NW 06:42:10 73° SW 06:53:56 10° SE daylight
05 Apr - 08:41:31 10° WSW 08:49:10 23° SSW 08:58:48 10° SSE daylight
05 Apr - 15:15:46 10° SSW 15:24:48 20° SSE 15:32:15 10° ESE daylight
05 Apr - 17:20:10 10° SW 17:32:21 61° SE 17:40:23 10° ENE daylight
05 Apr - 19:28:35 10° WSW 19:36:51 31° NW 19:42:45 10° NNE visible
06 Apr - 04:01:33 10° N 04:05:23 16° NE 04:10:02 10° E visible
06 Apr - 06:02:03 10° NW 06:09:08 84° SW 06:20:14 10° SE daylight
06 Apr - 08:08:11 10° W 08:15:38 25° SSW 08:25:23 10° SSE daylight
06 Apr - 14:42:28 10° S 14:51:04 18° SSE 14:58:28 10° ESE daylight
06 Apr - 16:46:31 10° SW 16:59:08 54° SE 17:07:39 10° ENE daylight
06 Apr - 18:54:23 10° WSW 19:04:05 39° NW 19:10:42 10° NNE visible
07 Apr - 03:30:46 10° NNE 03:32:40 11° NE 03:34:44 10° ENE visible
07 Apr - 05:29:38 10° NW 05:36:14 82° NE 05:46:32 10° SE visible
07 Apr - 07:35:01 10° W 07:42:14 27° SSW 07:51:57 10° SSE daylight
07 Apr - 14:09:15 10° S 14:17:16 16° SSE 14:24:23 10° ESE daylight
07 Apr - 16:12:54 10° SSW 16:25:47 48° SE 16:34:49 10° ENE daylight
07 Apr - 18:20:16 10° WSW 18:31:12 49° NW 18:38:30 10° NNE visible
08 Apr - 04:57:18 10° NW 05:03:25 68° NE 05:12:50 10° SE visible
08 Apr - 07:02:00 10° W 07:08:55 30° SSW 07:18:31 10° SSE daylight
08 Apr - 13:36:11 10° S 13:43:23 15° SSE 13:50:00 10° SE daylight
08 Apr - 15:39:19 10° SSW 15:52:20 43° SE 16:01:50 10° ENE daylight
08 Apr - 17:46:12 10° WSW 17:58:14 59° NW 18:06:13 10° NE daylight
09 Apr - 04:25:03 10° NNW 04:30:42 54° NE 04:39:07 10° ESE visible
09 Apr - 06:29:06 10° W 06:35:42 33° SSW 06:45:06 10° SSE daylight
09 Apr - 08:42:52 10° SSW 08:44:01 10° SSW 08:45:11 10° SSW daylight
09 Apr - 13:03:21 10° S 13:09:24 13° SSE 13:15:10 10° SE daylight
09 Apr - 15:05:47 10° SSW 15:18:48 39° SE 15:28:43 10° E daylight
09 Apr - 17:12:12 10° SW 17:25:11 70° NW 17:33:49 10° NE daylight
09 Apr - 19:25:15 10° WNW 19:29:31 14° NW 19:33:12 10° NNW visible
10 Apr - 03:52:54 10° NNW 03:58:03 41° NE 04:05:24 10° ESE visible
10 Apr - 05:56:19 10° W 06:02:34 37° SW 06:11:42 10° SSE daylight
10 Apr - 08:07:57 10° SSW 08:10:22 11° SSW 08:12:57 10° S daylight
10 Apr - 12:30:56 10° S 12:35:22 12° SSE 12:39:42 10° SE daylight
10 Apr - 14:32:20 10° SSW 14:45:10 35° SE 14:55:26 10° E daylight
10 Apr - 16:38:16 10° SW 16:52:01 81° NW 17:01:18 10° NE daylight
10 Apr - 18:49:50 10° W 18:56:36 19° NW 19:01:59 10° N visible
11 Apr - 03:20:51 10° NNW 03:25:28 31° NE 03:31:39 10° ESE visible
11 Apr - 05:23:37 10° WNW 05:29:34 42° SW 05:38:20 10° SSE visible
11 Apr - 07:33:48 10° SW 07:36:49 12° SSW 07:40:09 10° S daylight
11 Apr - 12:00:15 10° SSE 12:01:17 10° SSE 12:02:18 10° SSE daylight
11 Apr - 13:58:58 10° SSW 14:11:29 31° SE 14:21:57 10° E daylight
11 Apr - 16:04:24 10° SW 16:18:44 88° SE 16:28:40 10° NE daylight
11 Apr - 18:14:55 10° W 18:23:38 24° NW 18:30:16 10° N visible
12 Apr - 02:48:55 10° N 02:52:53 23° NE 02:57:51 10° E visible
12 Apr - 04:51:01 10° WNW 04:56:38 48° SW 05:05:00 10° SE visible
12 Apr - 07:00:01 10° SW 07:03:23 12° SSW 07:07:13 10° S daylight
12 Apr - 13:25:42 10° SSW 13:37:44 28° SSE 13:48:16 10° E daylight
12 Apr - 15:30:38 10° SW 15:45:20 79° SE 15:55:56 10° NE daylight
12 Apr - 17:40:14 10° W 17:50:37 30° NW 17:58:16 10° NNE daylight
